Torna al catalogo

SARAL

AttivoScienzaSSO
NORAD 39086·PAYLOAD·🇮🇳 India

Lanciato Feb 25, 2013 da Satish Dhawan Space Centre

Loading…

Prossimi Passaggi (prossime 24 ore)

TLE

AggiornatoSource: CelesTrak SupGP

Epoca: Sep 14, 2026, 00:00 UTC

1 39086C 13009A   26257.00000000  .00000163  00000+0  59703-4 0  2575
2 39086  98.5564  82.4579 0002559  52.1404 292.9521 14.32906972    11

Traccia SARAL in tempo reale con AllMySat

Download on the App Store